{"data":{"norad_id":50166,"intl_designator":"2021-125L","name":"STARLINK-3305","alt_names":[],"object_type":"PAYLOAD","status":"ACTIVE","operator":null,"country":"US","launch_date":"2021-12-18","launch_site_code":"AFWTR","launch_vehicle":null,"mission":null,"orbit_class":"UNKNOWN","rcs_meters":null,"size_class":null,"mass_kg":null,"dimensions":null,"purposes":["comms"],"wikipedia_slug":null,"has_3d_model":false,"image_url":null,"decayed_at":null,"tle_current":{"epoch":"2026-09-19T23:34:35.981760Z","epoch_age_seconds":90037,"freshness":"FRESH","line1":"1 50166U 21125L   26262.98236090  .00000016  00000+0  12262-4 0  9997","line2":"2 50166  53.1599  84.1936 0001111  81.1229 278.9899 15.31706396266096","mean_motion":15.31706396,"eccentricity":0.0001111,"inclination_deg":53.1599,"raan_deg":84.1936,"arg_perigee_deg":81.1229,"mean_anomaly_deg":278.9899,"bstar":1.2262e-5,"rev_number":26609,"period_min":94.01279538693,"perigee_km":469.96002103289,"apogee_km":471.48183726474,"semimajor_km":6848.8579291488,"source":"CELESTRAK","updated_at":"2026-09-20T09:00:39.414025Z"}}}